This is the latest recevied weather packets stored in our database for station/object N4BBA. If no packets are shown the sender has not sent any weather packets the latest 10 day(s).
| Time | Temp. | Humidity | Pressure | Rain* | Wind** | Luminosity | Snow |
|---|---|---|---|---|---|---|---|
| 1778082736 | 24.44° C | 63% | 1013.9 hPa | 0 mm | - | 565 W/m² | - |
| 1778081598 | 23.33° C | 64% | 1013.9 hPa | 0 mm | - | 271 W/m² | - |
| 1778081295 | 23.33° C | 64% | 1014 hPa | 0 mm | - | 296 W/m² | - |
| 1778080992 | 22.78° C | 64% | 1013.9 hPa | 0 mm | - | 293 W/m² | - |
| 1778080691 | 22.78° C | 64% | 1014.2 hPa | 0 mm | - | 297 W/m² | - |
| 1778080387 | 22.78° C | 65% | 1014.2 hPa | 0 mm | - | 271 W/m² | - |
| 1778080084 | 22.78° C | 64% | 1014.2 hPa | 0 mm | - | 250 W/m² | - |
| 1778079781 | 22.78° C | 64% | 1014.4 hPa | 0 mm | - | 255 W/m² | - |
| 1778079478 | 22.78° C | 64% | 1014.5 hPa | 0 mm | - | 359 W/m² | - |
| 1778079174 | 22.78° C | 64% | 1014.7 hPa | 0 mm | - | 310 W/m² | - |
| 1778078872 | 22.78° C | 65% | 1014.6 hPa | 0 mm | - | 284 W/m² | - |
| 1778078568 | 22.78° C | 65% | 1014.5 hPa | 0 mm | - | 324 W/m² | - |
| 1778078266 | 22.78° C | 65% | 1014.6 hPa | 0 mm | - | 378 W/m² | - |
| 1778077963 | 22.78° C | 66% | 1014.6 hPa | 0 mm | - | 371 W/m² | - |
| 1778077662 | 22.22° C | 67% | 1014.4 hPa | 0 mm | - | 352 W/m² | - |
| 1778077359 | 22.22° C | 68% | 1014.5 hPa | 0 mm | - | 351 W/m² | - |
| 1778077057 | 21.67° C | 69% | 1014.8 hPa | 0 mm | - | 334 W/m² | - |
| 1778076755 | 21.67° C | 69% | 1014.7 hPa | 0 mm | - | 263 W/m² | - |
| 1778076452 | 21.67° C | 70% | 1014.4 hPa | 0 mm | - | 222 W/m² | - |
| 1778076149 | 21.67° C | 71% | 1014.4 hPa | 0 mm | - | 261 W/m² | - |
| 1778075846 | 21.67° C | 72% | 1014.5 hPa | 0 mm | - | 415 W/m² | - |
| 1778075542 | 21.11° C | 73% | 1014.9 hPa | 0 mm | - | 347 W/m² | - |
| 1778075239 | 21.11° C | 74% | 1014.7 hPa | 0 mm | - | 284 W/m² | - |
| 1778074935 | 20.56° C | 74% | 1014.8 hPa | 0 mm | - | 235 W/m² | - |
| 1778074633 | 20.56° C | 75% | 1014.7 hPa | 0 mm | - | 231 W/m² | - |
* Rain latest hour (hover to see other rain measurements)
** Current wind speed in m/s (hover to see current wind gust speed)